TimeEDT,TemperatureF,Dew PointF,Humidity,Sea Level PressureIn,VisibilityMPH,Wind Direction,Wind SpeedMPH,Gust SpeedMPH,PrecipitationIn,Events,Conditions,WindDirDegrees,DateUTC
12:00 AM,33.8,24.8,70,29.76,25.0,NNE,6.9,-,N/A,,Overcast,20,2013-03-26 04:00:00
1:00 AM,33.8,23.0,65,29.75,25.0,NNE,6.9,-,N/A,,Mostly Cloudy,20,2013-03-26 05:00:00
2:00 AM,32.0,23.0,69,29.75,25.0,NNE,5.8,-,N/A,,Scattered Clouds,20,2013-03-26 06:00:00
3:00 AM,30.2,21.2,69,29.75,25.0,North,6.9,-,N/A,,Scattered Clouds,10,2013-03-26 07:00:00
4:00 AM,28.4,21.2,74,29.76,25.0,North,5.8,-,N/A,,Scattered Clouds,350,2013-03-26 08:00:00
5:00 AM,28.4,21.2,74,29.76,25.0,North,8.1,-,N/A,,Partly Cloudy,350,2013-03-26 09:00:00
6:00 AM,26.6,19.4,74,29.78,25.0,NNW,3.5,-,N/A,,Partly Cloudy,340,2013-03-26 10:00:00
7:00 AM,26.6,19.4,74,29.78,45.0,North,4.6,-,N/A,,Partly Cloudy,360,2013-03-26 11:00:00
8:00 AM,28.4,19.4,69,29.79,45.0,NW,4.6,-,N/A,,Partly Cloudy,320,2013-03-26 12:00:00
9:00 AM,33.8,21.2,60,29.80,45.0,Calm,Calm,-,N/A,,Partly Cloudy,0,2013-03-26 13:00:00
10:00 AM,37.4,23.0,56,29.82,45.0,North,5.8,-,N/A,,Mostly Cloudy,10,2013-03-26 14:00:00
11:00 AM,39.2,23.0,52,29.83,45.0,Calm,Calm,-,N/A,,Mostly Cloudy,0,2013-03-26 15:00:00
12:00 PM,39.2,24.8,56,29.81,45.0,SE,2.3,-,N/A,,Scattered Clouds,130,2013-03-26 16:00:00
1:00 PM,41.0,23.0,49,29.81,45.0,SW,6.9,-,N/A,,Scattered Clouds,220,2013-03-26 17:00:00
2:00 PM,42.8,23.0,46,29.80,60.0,SW,6.9,-,N/A,,Mostly Cloudy,230,2013-03-26 18:00:00
3:00 PM,42.8,24.8,49,29.79,45.0,SW,11.5,-,N/A,,Mostly Cloudy,220,2013-03-26 19:00:00
4:00 PM,41.0,24.8,53,29.79,45.0,SW,11.5,-,N/A,,Mostly Cloudy,220,2013-03-26 20:00:00
5:00 PM,42.8,23.0,46,29.78,35.0,SW,8.1,-,N/A,,Mostly Cloudy,220,2013-03-26 21:00:00
6:00 PM,42.8,24.8,49,29.79,45.0,Calm,Calm,-,N/A,,Mostly Cloudy,0,2013-03-26 22:00:00
7:00 PM,42.8,23.0,46,29.79,45.0,NNW,6.9,-,N/A,,Mostly Cloudy,330,2013-03-26 23:00:00
8:00 PM,42.8,21.2,42,29.80,25.0,WNW,5.8,-,N/A,,Scattered Clouds,290,2013-03-27 00:00:00
9:00 PM,41.0,21.2,45,29.81,25.0,West,3.5,-,N/A,,Mostly Cloudy,270,2013-03-27 01:00:00
10:00 PM,39.2,21.2,49,29.81,25.0,WSW,5.8,-,N/A,,Mostly Cloudy,240,2013-03-27 02:00:00
11:00 PM,37.4,23.0,56,29.81,25.0,WSW,4.6,-,N/A,,Overcast,250,2013-03-27 03:00:00